Miscellaneous Local Product
Issued by NWS Hastings, NE

Home | Current Version | Previous Version | Graphics & Text | Print | Product List | Glossary On
Versions: 1 2 3 4 5 6 7 8 9 10 11 12 13 14 15 16 17 18 19 20 21 22 23 24 25 26 27 28 29 30 31 32 33 34 35 36 37 38 39 40 41 42 43 44 45 46 47 48 49 50
038
AXUS43 KGID 180402
MISGRI

GID CWA HOURLY WEATHER ROUNDUP
NATIONAL WEATHER SERVICE HASTINGS NE
1100 PM CDT THU AUG 17 2017

NOTE: "FAIR" INDICATES FEW OR NO CLOUDS BELOW 12,000 FEET WITH NO
SIGNIFICANT WEATHER AND/OR OBSTRUCTIONS TO VISIBILITY.

...SOUTH CENTRAL NEBRASKA...

CITY           SKY/WX    TMP DP  RH WIND       PRES   REMARKS
GRAND ISLAND   CLOUDY    71  63  75 S9        29.92F
HASTINGS       PTCLDY    72  59  63 S9        29.95F
KEARNEY        MOCLDY    72  59  63 S12       29.93F
ORD            CLOUDY    70  61  73 CALM      29.89F
YORK           CLEAR     66  64  94 S7        29.94F
AURORA         CLEAR     72  62  70 S8        29.92F
LEXINGTON      CLOUDY    73  57  59 SE8       29.92F
HOLDREGE       MOCLDY    71  56  60 S13       29.94S
HEBRON         CLEAR     70  61  75 S7        29.95F

...NEBRASKA PANHANDLE...

CITY           SKY/WX    TMP DP  RH WIND       PRES   REMARKS
CHADRON        CLEAR     59  53  80 SW6       30.02R
ALLIANCE       PTCLDY    62  51  67 MISG      30.03S
SCOTTSBLUFF    CLEAR     68  48  48 NE7G18    30.06R
SIDNEY         CLEAR     67  49  52 N10       30.08R

...WESTERN AND NORTH CENTRAL NEBRASKA...

CITY           SKY/WX    TMP DP  RH WIND       PRES   REMARKS
VALENTINE      CLOUDY    70  54  56 S7        29.90F
AINSWORTH      TSTM      63  60  93 SE10      30.00R
ONEILL         CLOUDY    71  62  73 NW26G40   29.96R THUNDER
BROKEN BOW     CLOUDY    71  60  68 S5        29.92S
IMPERIAL       CLEAR     62  54  74 S7        29.98S
NORTH PLATTE   CLOUDY    67  59  75 CALM      29.93S
MCCOOK         CLOUDY    70  54  56 SW12      29.93R

...EASTERN NEBRASKA...

CITY           SKY/WX    TMP DP  RH WIND       PRES   REMARKS
NORFOLK        CLEAR     66  62  87 E6        29.91S
SO SIOUX CITY  CLEAR     65  63  93 SE6       29.90S
TEKAMAH        CLEAR     63  61  93 CALM      29.91R
COLUMBUS       CLEAR     69  64  84 S3        29.92F
ALBION         CLEAR     69  65  87 SE3       29.91F
OMAHA EPPLEY   CLEAR     70  62  76 SE3       29.92R
OFFUTT AFB     CLEAR     62  59  91 CALM      29.92R
MILLARD        CLEAR     69  65  88 CALM      29.93S
LINCOLN        CLEAR     71  63  75 S5        29.93F
NEBRASKA CITY  CLEAR     67  65  91 SW5       29.94S
BEATRICE       CLEAR     68  62  81 CALM      29.95S
FALLS CITY     CLEAR     67  61  81 S5        29.94R

...NORTHERN KANSAS...

CITY           SKY/WX    TMP DP  RH WIND       PRES   REMARKS
GOODLAND       CLEAR     67  60  78 SE10      30.04R
HILL CITY      TSTM      67  60  78 SW10      30.04S
NORTON         LGT RAIN  68  55  64 SE8       29.99
PHILLIPSBURG   PTCLDY    77  54  44 SW16G23   29.99R
SMITH CENTER   PTCLDY    66  59  77 SE8       29.96S
HAYS           CLOUDY    74  57  55 SE7       29.98S
RUSSELL        PTCLDY    75  55  49 S12       29.96F
CONCORDIA      CLEAR     71  60  68 S12       29.96S
SALINA         CLOUDY    72  60  66 S7        29.97S
TOPEKA         CLEAR     67  66  97 CALM      29.96R



USA.gov is the U.S. government's official web portal to all federal, state and local government web resources and services.